Powrót do katalogu

YZ-1 R/B

AktywnyMEO
NORAD 58656·ROCKET BODY·🇨🇳 China

Wystrzelony Dec 26, 2023 z Xichang Satellite Launch Center

Loading…

Następne Przeloty (najbliższe 24 godziny)

TLE

ŚwieżeSource: Space-Track

Epoka: Sep 11, 2026, 23:29 UTC

1 58656U 23207C   26254.97896163 -.00000030  00000-0  00000-0 0  9996
2 58656  55.9188  61.8922 0025711 348.1597  11.8003  1.79266045 17763

Śledź YZ-1 R/B w czasie rzeczywistym z AllMySat

Download on the App Store